Location: Wellington
(41.3000°S, 174.7830°E)
Time: 02:01:07
(UTC+13:00)

Nimbus 7 Rocket - Pass Details

Date: 24 January 2019
Orbit: 922 x 966 km, 99.5° (Epoch: 15 February)

Event Time Altitude Azimuth Distance (km) Brightness Sun altitude
Exits shadow 22:38:54 26° 28° (NNE) 1,745 5.3 -17.3°
Maximum altitude 22:42:21 73° 108° (ESE) 989 4.4 -17.7°
Drops below altitude 10° 22:48:22 10° 191° (S) 2,696 7.7 -18.5°
Sets 22:50:50 0° 192° (SSW) 3,654 8.6 -18.8°
